Tracking 19575 objects as of 20-Feb-2019
HD Live streaming from Space Station
objects crossing your sky now

GOES 2

Track GOES 2 now!
GOES 2 is classified as:


NORAD ID: 10061
Int'l Code: 1977-048A
Perigee: 35,961.9 km
Apogee: 36,120.3 km
Inclination: 12.3 °
Period: 1,448.8 minutes
Semi major axis: 42412 km
RCS: 2.5118 m2 (large)
Launch date: June 16, 1977
Source: United States (US)
Launch site: AIR FORCE EASTERN TEST RANGE (AFETR)
aabbcc
Your satellite tracking list
Your tracking list is empty




NASA's NSSDC Master Catalog

Two Line Element Set (TLE):
1 10061U 77048A   19050.21825786 -.00000170  00000-0  00000+0 0  9996
2 10061  12.3188 320.6081 0018676 344.7713 208.3890  0.99395867 96922
Source of the keplerian elements: AFSPC